SM6LNJ-13 Weather Reports


time (UTC)temp
F
wind
direction
speed
knots
gust
knots
rain 1hr
in
rain 24hr
in
rain mn
in
humidity
%
barometer
mb
20260507213950 39 99 0.0 0.9 0.00 0.00 0.00 73 1412.2
20260507213750 39 85 0.0 0.0 0.00 0.00 0.00 73 1412.2
20260507213550 39 86 0.0 0.0 0.00 0.00 0.00 73 1412.3
20260507213350 40 90 0.0 0.0 0.00 0.00 0.00 72 1412.5
20260507213150 40 90 0.0 0.0 0.00 0.00 0.00 72 1412.6
20260507212950 40 90 0.0 0.0 0.00 0.00 0.00 72 1412.5
20260507212750 40 91 0.0 0.0 0.00 0.00 0.00 72 1412.4
20260507212550 40 94 0.0 0.0 0.00 0.00 0.00 72 1412.4
20260507212350 39 91 0.0 0.9 0.00 0.00 0.00 72 1412.3
20260507212150 40 90 0.0 0.9 0.00 0.00 0.00 72 1412.3
20260507211950 40 87 0.0 0.9 0.00 0.00 0.00 72 1412.4
20260507211750 40 90 0.0 0.9 0.00 0.00 0.00 72 1412.6
20260507211550 40 103 0.0 0.9 0.00 0.00 0.00 71 1412.7
20260507211350 40 105 0.0 0.0 0.00 0.00 0.00 71 1412.6
20260507211150 40 102 0.0 0.0 0.00 0.00 0.00 71 1412.6
20260507210950 40 108 0.0 0.0 0.00 0.00 0.00 71 1412.5
20260507210945 40 145 0.0 0.0 0.00 0.00 0.00 71 1412.5
20260507210550 40 154 0.0 0.0 0.00 0.00 0.00 71 1412.4
20260507210350 40 163 0.0 0.0 0.00 0.00 0.00 71 1412.5
20260507210150 40 139 0.0 0.0 0.00 0.00 0.00 70 1412.6
20260507205950 40 113 0.0 0.0 0.00 0.00 0.00 70 1412.7
20260507205750 40 138 0.0 0.0 0.00 0.00 0.00 70 1412.8
20260507205550 40 124 0.0 0.0 0.00 0.00 0.00 70 1412.8
20260507205350 40 102 0.0 0.0 0.00 0.00 0.00 70 1412.9
20260507205150 40 92 0.0 0.0 0.00 0.00 0.00 70 1413.1
20260507204950 40 125 0.0 0.0 0.00 0.00 0.00 69 1413.2
20260507204750 40 79 0.0 0.0 0.00 0.00 0.00 69 1413.5
20260507204550 40 101 0.0 0.0 0.00 0.00 0.00 69 1413.6
20260507204350 41 96 0.0 0.9 0.00 0.00 0.00 69 1413.7
20260507204150 41 93 0.0 0.9 0.00 0.00 0.00 69 1413.7
20260507203950 41 105 0.0 0.9 0.00 0.00 0.00 68 1413.7
20260507203750 41 109 0.0 0.9 0.00 0.00 0.00 68 1413.8
20260507203550 41 153 0.0 0.9 0.00 0.00 0.00 68 1413.8
20260507203350 41 167 0.0 0.9 0.00 0.00 0.00 68 1414.0
20260507203150 41 123 0.0 0.9 0.00 0.00 0.00 67 1414.2
20260507202950 41 107 0.0 0.9 0.00 0.00 0.00 67 1411.0
20260507202752 41 128 0.0 0.0 0.00 0.00 0.00 67 1411.0
20260507202750 41 128 0.0 0.0 0.00 0.00 0.00 67 1411.0
20260507202552 41 119 0.0 0.0 0.00 0.00 0.00 66 1414.5
20260507202550 41 119 0.0 0.0 0.00 0.00 0.00 66 1414.5
20260507202350 41 86 0.0 0.0 0.00 0.00 0.00 66 1411.4
20260507202152 42 82 0.0 0.0 0.00 0.00 0.00 66 1411.7
20260507202150 42 82 0.0 0.0 0.00 0.00 0.00 66 1411.7
20260507201950 42 90 0.0 0.0 0.00 0.00 0.00 66 1412.0
20260507201750 42 95 0.0 0.0 0.00 0.00 0.00 66 1412.3
20260507201552 42 90 0.0 0.0 0.00 0.00 0.00 65 1412.4
20260507201550 42 90 0.0 0.0 0.00 0.00 0.00 65 1412.4
20260507201350 42 90 0.0 0.0 0.00 0.00 0.00 65 1412.5
20260507201152 42 90 0.0 0.0 0.00 0.00 0.00 64 1412.6
20260507201150 42 90 0.0 0.0 0.00 0.00 0.00 64 1412.6
20260507200950 43 90 0.0 0.0 0.00 0.00 0.00 64 1412.9
20260507200750 43 90 0.0 0.0 0.00 0.00 0.00 64 1413.1
20260507200552 43 90 0.0 0.0 0.00 0.00 0.00 63 1413.4
20260507200550 43 90 0.0 0.0 0.00 0.00 0.00 63 1413.4
20260507200352 43 109 0.0 0.0 0.00 0.00 0.00 63 1413.8
20260507200350 43 109 0.0 0.0 0.00 0.00 0.00 63 1413.8
20260507200150 43 110 0.0 0.0 0.00 0.00 0.00 62 1414.1
20260507195950 44 90 0.0 0.0 0.00 0.00 0.00 62 1414.5
20260507195750 44 90 0.0 0.0 0.00 0.00 0.00 61 1415.0
20260507195553 45 88 0.0 0.0 0.00 0.00 0.00 61 1415.5
20260507195550 45 88 0.0 0.0 0.00 0.00 0.00 61 1415.5
20260507195350 45 88 0.0 0.0 0.00 0.00 0.00 61 1416.0
20260507195150 45 91 0.0 0.9 0.00 0.00 0.00 60 1416.4
20260507195145 46 92 0.0 0.9 0.00 0.00 0.00 60 1416.9
20260507194750 46 107 0.0 0.9 0.00 0.00 0.00 60 1414.1
20260507194550 46 115 0.0 0.9 0.00 0.00 0.00 60 1414.4
20260507194350 46 161 0.0 0.9 0.00 0.00 0.00 60 1414.5
20260507194150 47 122 0.0 0.9 0.00 0.00 0.00 59 1414.7
20260507193950 47 122 0.0 0.9 0.00 0.00 0.00 59 1415.0
20260507193750 47 151 0.0 1.7 0.00 0.00 0.00 59 1415.1
20260507193550 47 171 0.0 1.7 0.00 0.00 0.00 58 1415.2
20260507193350 47 208 0.0 1.7 0.00 0.00 0.00 58 1415.4
20260507193346 47 208 0.0 1.7 0.00 0.00 0.00 58 1415.4
20260507193150 47 185 0.0 1.7 0.00 0.00 0.00 58 1415.7
20260507192950 48 190 0.0 1.7 0.00 0.00 0.00 58 1416.0
20260507192750 48 173 0.0 1.7 0.00 0.00 0.00 58 1416.2
20260507192550 48 171 0.0 1.7 0.00 0.00 0.00 58 1416.4
20260507192350 48 183 0.0 1.7 0.00 0.00 0.00 57 1416.5
20260507192150 48 187 0.0 1.7 0.00 0.00 0.00 58 1416.6
20260507191950 48 207 0.0 1.7 0.00 0.00 0.00 58 1416.6
20260507191750 48 184 0.0 1.7 0.00 0.00 0.00 58 1416.6
20260507191550 48 193 0.0 1.7 0.00 0.00 0.00 58 1416.5
20260507191350 48 192 0.0 1.7 0.00 0.00 0.00 58 1416.6
20260507191150 48 211 0.0 0.9 0.00 0.00 0.00 57 1416.6
20260507190950 48 188 0.0 0.9 0.00 0.00 0.00 57 1416.6
20260507190750 48 195 0.0 0.9 0.00 0.00 0.00 57 1416.7
20260507190550 48 171 0.0 0.9 0.00 0.00 0.00 56 1416.9
20260507190350 48 142 0.0 1.7 0.00 0.00 0.00 56 1417.1
20260507190150 49 148 0.0 1.7 0.00 0.00 0.00 56 1417.4
20260507185950 49 139 0.0 1.7 0.00 0.00 0.00 55 1417.6
20260507185750 49 170 0.0 1.7 0.00 0.00 0.00 55 1417.8
20260507185550 49 181 0.0 1.7 0.00 0.00 0.00 54 1417.9
20260507185350 49 227 0.0 1.7 0.00 0.00 0.00 53 1418.0
20260507185150 49 169 0.0 1.7 0.00 0.00 0.00 52 1418.3
20260507184950 49 192 0.0 1.7 0.00 0.00 0.00 51 1418.5
20260507184750 50 169 0.0 1.7 0.00 0.00 0.00 50 1418.8
20260507184550 50 221 0.0 0.9 0.00 0.00 0.00 49 1419.0
20260507184350 50 155 0.0 0.9 0.00 0.00 0.00 48 1419.1
20260507184150 50 182 0.0 0.9 0.00 0.00 0.00 47 1419.2
20260507183950 50 128 0.0 1.7 0.00 0.00 0.00 47 1419.5
20260507183750 50 138 0.0 1.7 0.00 0.00 0.00 46 1419.7
20260507183550 51 224 0.0 1.7 0.00 0.00 0.00 45 1420.0
20260507183350 51 279 0.0 1.7 0.00 0.00 0.00 45 1420.4
20260507183150 51 176 0.0 1.7 0.00 0.00 0.00 45 1420.8
20260507182950 52 207 0.0 1.7 0.00 0.00 0.00 44 1421.2
20260507182750 52 170 0.0 1.7 0.00 0.00 0.00 44 1421.6
20260507182550 52 179 0.0 1.7 0.00 0.00 0.00 43 1422.3
20260507182350 53 206 0.0 1.7 0.00 0.00 0.00 42 1423.4
20260507182150 54 175 0.0 1.7 0.00 0.00 0.00 41 1424.9
20260507181950 56 200 0.0 1.7 0.00 0.00 0.00 39 1427.1
20260507181750 58 189 0.0 2.6 0.00 0.00 0.00 38 1430.0
20260507181550 60 173 0.0 2.6 0.00 0.00 0.00 36 1432.8
20260507181350 62 165 0.0 2.6 0.00 0.00 0.00 35 1434.8
20260507181150 62 175 0.0 2.6 0.00 0.00 0.00 34 1435.4
20260507180950 63 151 0.9 2.6 0.00 0.00 0.00 34 1435.9
20260507180750 63 165 0.0 1.7 0.00 0.00 0.00 34 1436.2
20260507180550 63 133 0.0 1.7 0.00 0.00 0.00 34 1435.9
20260507180350 63 193 0.0 1.7 0.00 0.00 0.00 34 1436.3
20260507180150 64 155 0.0 1.7 0.00 0.00 0.00 34 1437.0
20260507175750 63 237 0.0 2.6 0.00 0.00 0.00 34 1436.6
20260507175550 63 169 0.0 2.6 0.00 0.00 0.00 34 1436.6
20260507175350 64 198 0.9 3.5 0.00 0.00 0.00 34 1436.9
20260507175150 64 161 0.0 3.5 0.00 0.00 0.00 34 1437.1
20260507174950 63 200 0.0 3.5 0.00 0.00 0.00 34 1436.5
20260507174750 63 219 0.9 3.5 0.00 0.00 0.00 34 1436.1
20260507174550 63 178 0.9 2.6 0.00 0.00 0.00 34 1436.5
20260507174350 63 160 0.9 2.6 0.00 0.00 0.00 35 1436.9
20260507174150 64 231 0.9 2.6 0.00 0.00 0.00 35 1437.3
20260507173950 65 215 0.9 1.7 0.00 0.00 0.00 34 1438.5
20260507173750 65 186 0.0 2.6 0.00 0.00 0.00 34 1439.4
20260507173550 65 166 0.9 2.6 0.00 0.00 0.00 33 1439.5
20260507173350 66 209 0.9 2.6 0.00 0.00 0.00 33 1439.8
20260507173150 66 223 0.0 2.6 0.00 0.00 0.00 33 1439.7
20260507172950 66 211 0.9 2.6 0.00 0.00 0.00 32 1440.0
20260507172750 67 177 0.0 1.7 0.00 0.00 0.00 32 1441.0
20260507172550 66 189 0.0 1.7 0.00 0.00 0.00 33 1440.8
20260507172350 66 175 0.0 1.7 0.00 0.00 0.00 32 1440.6
20260507172150 66 209 0.0 2.6 0.00 0.00 0.00 33 1440.7
20260507171950 66 167 0.0 2.6 0.00 0.00 0.00 33 1440.2
20260507171750 66 178 0.0 2.6 0.00 0.00 0.00 32 1439.9
20260507171550 66 237 0.9 2.6 0.00 0.00 0.00 32 1440.2
20260507171350 66 183 0.9 1.7 0.00 0.00 0.00 32 1440.7
20260507171150 67 154 0.0 1.7 0.00 0.00 0.00 33 1441.3
20260507170950 67 186 0.0 1.7 0.00 0.00 0.00 33 1441.0
20260507170750 66 180 0.9 1.7 0.00 0.00 0.00 33 1440.6
20260507170550 66 192 0.9 3.5 0.00 0.00 0.00 34 1440.5
20260507170350 66 176 0.0 3.5 0.00 0.00 0.00 34 1440.3
20260507170150 66 178 0.9 3.5 0.00 0.00 0.00 34 1439.9
20260507165950 65 169 0.9 3.5 0.00 0.00 0.00 34 1439.4
20260507165750 65 201 0.9 2.6 0.00 0.00 0.00 35 1439.6
20260507165550 65 181 0.9 2.6 0.00 0.00 0.00 35 1439.5
20260507165350 65 185 0.9 2.6 0.00 0.00 0.00 36 1438.8
20260507165150 65 157 0.9 2.6 0.00 0.00 0.00 36 1438.3
20260507164950 65 166 0.9 2.6 0.00 0.00 0.00 35 1438.3
20260507164750 64 193 0.9 2.6 0.00 0.00 0.00 36 1438.1
20260507164550 64 196 0.9 2.6 0.00 0.00 0.00 35 1437.8
20260507164350 64 198 0.9 4.3 0.00 0.00 0.00 35 1438.0
20260507164150 65 187 0.9 4.3 0.00 0.00 0.00 35 1438.5
20260507163950 65 188 0.9 4.3 0.00 0.00 0.00 34 1438.9
20260507163750 65 211 0.9 4.3 0.00 0.00 0.00 35 1439.0
20260507163550 65 203 0.9 3.5 0.00 0.00 0.00 35 1438.8
20260507163350 65 200 0.9 3.5 0.00 0.00 0.00 35 1438.9
20260507163150 65 192 0.9 3.5 0.00 0.00 0.00 35 1439.3
20260507162950 66 190 0.9 3.5 0.00 0.00 0.00 35 1439.6
20260507162750 65 183 0.9 3.5 0.00 0.00 0.00 35 1439.2
20260507162550 65 178 0.9 3.5 0.00 0.00 0.00 36 1438.9
20260507162350 65 219 0.9 3.5 0.00 0.00 0.00 36 1438.5
20260507162150 64 161 0.9 4.3 0.00 0.00 0.00 36 1438.0
20260507161950 64 226 0.9 4.3 0.00 0.00 0.00 35 1437.8
20260507161750 64 193 0.9 4.3 0.00 0.00 0.00 35 1437.8
20260507161550 64 159 0.9 4.3 0.00 0.00 0.00 35 1437.7
20260507161350 64 191 0.9 4.3 0.00 0.00 0.00 35 1437.4
20260507161150 64 195 0.9 3.5 0.00 0.00 0.00 36 1437.7
20260507160950 64 183 0.9 3.5 0.00 0.00 0.00 36 1437.2
20260507160750 63 206 0.9 3.5 0.00 0.00 0.00 36 1436.8
20260507160550 63 204 0.9 3.5 0.00 0.00 0.00 36 1436.4
20260507160350 63 180 0.9 3.5 0.00 0.00 0.00 37 1436.2
20260507160150 62 157 0.9 3.5 0.00 0.00 0.00 37 1435.5
20260507155950 62 184 0.9 3.5 0.00 0.00 0.00 37 1435.2
20260507155750 62 193 0.9 3.5 0.00 0.00 0.00 38 1434.7
20260507155550 62 181 0.9 3.5 0.00 0.00 0.00 38 1434.4
20260507155350 61 196 0.9 3.5 0.00 0.00 0.00 38 1434.1
20260507155150 61 226 0.9 3.5 0.00 0.00 0.00 38 1434.1
20260507154950 62 189 0.9 3.5 0.00 0.00 0.00 37 1434.7
20260507154750 62 185 0.9 3.5 0.00 0.00 0.00 36 1435.2
20260507154550 63 193 0.9 3.5 0.00 0.00 0.00 36 1435.9
20260507154350 63 212 0.9 3.5 0.00 0.00 0.00 36 1435.9
20260507154151 63 222 0.0 4.3 0.00 0.00 0.00 36 1435.9
20260507153950 63 176 0.9 4.3 0.00 0.00 0.00 35 1435.8
20260507153750 63 206 0.9 4.3 0.00 0.00 0.00 35 1435.6
20260507153550 62 179 0.9 4.3 0.00 0.00 0.00 36 1435.5
20260507153350 62 186 0.9 4.3 0.00 0.00 0.00 35 1435.2
20260507153150 62 187 0.9 3.5 0.00 0.00 0.00 35 1434.7
20260507152950 62 166 0.9 3.5 0.00 0.00 0.00 35 1434.5
20260507152750 62 190 0.9 3.5 0.00 0.00 0.00 35 1434.7
20260507152550 62 208 0.9 3.5 0.00 0.00 0.00 35 1434.5
20260507152350 61 190 0.9 3.5 0.00 0.00 0.00 35 1434.1
20260507152150 61 183 0.9 3.5 0.00 0.00 0.00 35 1433.9
20260507151950 61 212 1.7 3.5 0.00 0.00 0.00 35 1434.2
20260507151750 62 206 0.9 3.5 0.00 0.00 0.00 35 1434.9
20260507151550 62 191 0.9 3.5 0.00 0.00 0.00 35 1435.3
20260507151351 63 204 0.9 3.5 0.00 0.00 0.00 34 1435.7
20260507151150 63 208 0.9 3.5 0.00 0.00 0.00 35 1436.0
20260507150950 63 181 0.9 3.5 0.00 0.00 0.00 35 1435.7
20260507150750 62 178 0.9 5.2 0.00 0.00 0.00 34 1435.5
20260507150550 63 209 1.7 5.2 0.00 0.00 0.00 33 1436.0
20260507150150 63 158 0.9 5.2 0.00 0.00 0.00 34 1436.2
20260507145950 63 187 1.7 4.3 0.00 0.00 0.00 33 1436.3
20260507145750 63 180 0.9 4.3 0.00 0.00 0.00 33 1436.8
20260507145550 64 202 1.7 4.3 0.00 0.00 0.00 33 1437.5
20260507145350 65 169 0.9 4.3 0.00 0.00 0.00 33 1438.3
20260507145150 65 191 1.7 4.3 0.00 0.00 0.00 32 1438.6
20260507144950 65 193 0.9 4.3 0.00 0.00 0.00 32 1439.0
20260507144750 65 181 0.9 4.3 0.00 0.00 0.00 32 1439.1
20260507144550 65 211 1.7 4.3 0.00 0.00 0.00 32 1439.2
20260507144350 66 175 0.9 4.3 0.00 0.00 0.00 33 1439.9
20260507144150 66 215 1.7 4.3 0.00 0.00 0.00 32 1440.5
20260507143950 67 185 0.9 4.3 0.00 0.00 0.00 33 1441.0
20260507143750 67 191 1.7 4.3 0.00 0.00 0.00 33 1441.5
20260507143550 67 211 0.9 3.5 0.00 0.00 0.00 32 1442.1
20260507143350 68 207 0.9 5.2 0.00 0.00 0.00 32 1442.4
20260507143150 68 188 0.9 5.2 0.00 0.00 0.00 32 1442.8
20260507142950 68 187 0.9 5.2 0.00 0.00 0.00 31 1443.0
20260507142750 68 172 0.9 5.2 0.00 0.00 0.00 31 1443.3
20260507142550 69 198 0.9 5.2 0.00 0.00 0.00 30 1443.7
20260507142350 69 204 0.9 3.5 0.00 0.00 0.00 30 1444.4
20260507142150 69 192 0.9 3.5 0.00 0.00 0.00 30 1444.7
20260507141950 69 178 0.9 3.5 0.00 0.00 0.00 30 1444.6
20260507141750 69 231 0.9 5.2 0.00 0.00 0.00 30 1444.1
20260507141550 69 198 0.9 5.2 0.00 0.00 0.00 29 1444.2
20260507141350 69 195 0.9 5.2 0.00 0.00 0.00 28 1444.3
20260507141150 69 178 0.9 5.2 0.00 0.00 0.00 28 1444.3
20260507140950 69 195 0.9 5.2 0.00 0.00 0.00 28 1444.3
20260507140750 69 178 0.9 3.5 0.00 0.00 0.00 29 1444.5
20260507140550 69 202 0.9 4.3 0.00 0.00 0.00 29 1444.7
20260507140350 69 202 0.9 4.3 0.00 0.00 0.00 30 1444.7
20260507140150 69 195 0.9 4.3 0.00 0.00 0.00 30 1444.0
20260507135950 69 201 0.9 4.3 0.00 0.00 0.00 30 1443.7
20260507135750 69 215 0.9 4.3 0.00 0.00 0.00 30 1444.2
20260507135550 69 183 0.9 3.5 0.00 0.00 0.00 30 1444.6
20260507135350 70 175 0.9 3.5 0.00 0.00 0.00 31 1444.9
20260507135150 70 191 0.9 3.5 0.00 0.00 0.00 30 1444.8
20260507134950 70 187 0.9 3.5 0.00 0.00 0.00 30 1445.0
20260507134750 69 191 0.9 3.5 0.00 0.00 0.00 31 1444.6
20260507134550 69 186 0.9 3.5 0.00 0.00 0.00 31 1444.7
20260507134350 70 206 0.9 3.5 0.00 0.00 0.00 31 1445.2
20260507134150 70 201 0.9 3.5 0.00 0.00 0.00 32 1445.2
20260507133951 69 203 0.9 3.5 0.00 0.00 0.00 32 1444.2
20260507133750 68 208 0.9 4.3 0.00 0.00 0.00 32 1443.3
20260507133550 68 203 0.9 4.3 0.00 0.00 0.00 33 1443.0
20260507133350 68 195 0.9 4.3 0.00 0.00 0.00 33 1442.7
20260507133150 68 243 1.7 5.2 0.00 0.00 0.00 33 1442.3
20260507132951 68 200 0.9 5.2 0.00 0.00 0.00 33 1442.6
20260507132750 68 201 1.7 5.2 0.00 0.00 0.00 32 1442.9
20260507132550 68 201 0.9 5.2 0.00 0.00 0.00 33 1442.7
20260507132350 68 197 1.7 5.2 0.00 0.00 0.00 33 1442.6
20260507132150 67 210 0.9 6.1 0.00 0.00 0.00 34 1442.0
20260507131950 67 178 0.9 6.1 0.00 0.00 0.00 35 1441.4
20260507131750 66 197 1.7 6.1 0.00 0.00 0.00 35 1440.6
20260507131550 66 223 1.7 6.1 0.00 0.00 0.00 35 1440.8
20260507131350 67 174 1.7 6.1 0.00 0.00 0.00 34 1441.2
20260507131150 67 208 1.7 4.3 0.00 0.00 0.00 35 1441.4
20260507130950 67 203 1.7 4.3 0.00 0.00 0.00 35 1441.0
20260507130750 66 168 1.7 3.5 0.00 0.00 0.00 35 1440.9
20260507130550 66 209 1.7 4.3 0.00 0.00 0.00 35 1440.2
20260507130350 66 204 1.7 7.0 0.00 0.00 0.00 35 1439.6
20260507130150 65 214 0.9 7.0 0.00 0.00 0.00 37 1438.9
20260507125950 64 187 1.7 7.0 0.00 0.00 0.00 37 1438.1
20260507125750 64 215 1.7 7.0 0.00 0.00 0.00 37 1437.3
20260507125550 64 196 1.7 7.0 0.00 0.00 0.00 37 1437.1
20260507125350 64 186 1.7 5.2 0.00 0.00 0.00 37 1437.0
20260507125150 63 182 0.9 5.2 0.00 0.00 0.00 39 1436.0
20260507124951 62 195 2.6 5.2 0.00 0.00 0.00 38 1435.5
20260507124750 63 199 1.7 5.2 0.00 0.00 0.00 37 1435.6
20260507124550 62 204 1.7 5.2 0.00 0.00 0.00 38 1435.2
20260507124350 62 190 1.7 6.1 0.00 0.00 0.00 38 1435.1
20260507124150 62 221 1.7 6.1 0.00 0.00 0.00 37 1434.6
20260507123950 62 227 1.7 6.1 0.00 0.00 0.00 38 1434.7
20260507123750 61 205 0.9 6.1 0.00 0.00 0.00 37 1434.1
20260507123550 61 225 2.6 6.1 0.00 0.00 0.00 37 1433.7
20260507123350 61 193 1.7 6.1 0.00 0.00 0.00 38 1434.0
20260507123150 61 209 1.7 6.1 0.00 0.00 0.00 38 1434.1
20260507122950 61 197 1.7 5.2 0.00 0.00 0.00 39 1434.1
20260507122750 61 209 0.9 5.2 0.00 0.00 0.00 40 1433.7
20260507122550 61 206 1.7 5.2 0.00 0.00 0.00 39 1433.4
20260507122350 61 179 0.9 5.2 0.00 0.00 0.00 39 1433.2
20260507122150 60 220 1.7 5.2 0.00 0.00 0.00 39 1432.8
20260507121950 60 180 1.7 6.1 0.00 0.00 0.00 40 1432.5
20260507121750 60 209 1.7 6.1 0.00 0.00 0.00 40 1432.5
20260507121550 60 207 0.9 6.1 0.00 0.00 0.00 40 1432.2
20260507121350 60 204 1.7 6.1 0.00 0.00 0.00 41 1432.1
20260507121151 60 192 1.7 5.2 0.00 0.00 0.00 42 1432.0
20260507120950 59 198 1.7 7.0 0.00 0.00 0.00 42 1431.5
20260507120750 59 214 1.7 7.0 0.00 0.00 0.00 41 1431.5
20260507120550 59 226 2.6 7.0 0.00 0.00 0.00 42 1431.5
20260507120350 60 225 1.7 7.0 0.00 0.00 0.00 43 1431.9
20260507120150 60 212 1.7 6.1 0.00 0.00 0.00 44 1431.9
20260507115950 60 215 2.6 6.1 0.00 0.00 0.00 42 1432.2
20260507115750 60 205 0.9 5.2 0.00 0.00 0.00 45 1432.8
20260507115550 60 188 0.9 5.2 0.00 0.00 0.00 46 1432.3
20260507115350 60 206 1.7 5.2 0.00 0.00 0.00 45 1431.7
20260507115150 59 210 1.7 5.2 0.00 0.00 0.00 45 1431.4
20260507114950 60 210 1.7 5.2 0.00 0.00 0.00 44 1431.7
20260507114946 60 210 1.7 5.2 0.00 0.00 0.00 44 1431.7
20260507114750 59 188 0.9 5.2 0.00 0.00 0.00 45 1431.6
20260507114550 59 215 1.7 5.2 0.00 0.00 0.00 45 1431.3
20260507114350 59 204 1.7 5.2 0.00 0.00 0.00 45 1431.3
20260507114150 60 231 1.7 5.2 0.00 0.00 0.00 45 1431.7
20260507113950 60 217 0.9 5.2 0.00 0.00 0.00 46 1432.0
20260507113750 59 232 0.9 4.3 0.00 0.00 0.00 46 1431.6
20260507113550 59 203 1.7 4.3 0.00 0.00 0.00 46 1431.5
20260507113350 59 197 1.7 6.1 0.00 0.00 0.00 45 1431.6
20260507113150 60 188 1.7 6.1 0.00 0.00 0.00 45 1431.9
20260507112950 60 223 1.7 6.1 0.00 0.00 0.00 47 1431.9
20260507112750 60 199 0.9 6.1 0.00 0.00 0.00 45 1431.7
20260507112550 60 241 1.7 6.1 0.00 0.00 0.00 46 1431.9
20260507112350 60 192 0.9 4.3 0.00 0.00 0.00 46 1431.9
20260507112150 60 185 0.9 4.3 0.00 0.00 0.00 45 1431.9
20260507111950 60 214 1.7 4.3 0.00 0.00 0.00 44 1431.9
20260507111750 60 222 1.7 5.2 0.00 0.00 0.00 45 1431.7
20260507111550 59 184 0.9 5.2 0.00 0.00 0.00 44 1431.3
20260507111350 59 229 1.7 5.2 0.00 0.00 0.00 44 1431.0
20260507111150 59 196 1.7 5.2 0.00 0.00 0.00 43 1431.0
20260507110950 59 204 1.7 5.2 0.00 0.00 0.00 43 1431.1
20260507110750 59 214 1.7 5.2 0.00 0.00 0.00 44 1431.0
20260507110550 59 222 0.9 4.3 0.00 0.00 0.00 44 1430.9
20260507110350 59 216 1.7 4.3 0.00 0.00 0.00 45 1430.4
20260507110150 58 225 1.7 4.3 0.00 0.00 0.00 44 1430.2
20260507105950 58 201 1.7 4.3 0.00 0.00 0.00 45 1430.3
20260507105750 59 207 1.7 4.3 0.00 0.00 0.00 45 1430.8
20260507105550 59 160 0.9 5.2 0.00 0.00 0.00 45 1431.3
20260507105350 60 231 1.7 5.2 0.00 0.00 0.00 44 1431.7
20260507105150 60 195 1.7 5.2 0.00 0.00 0.00 43 1432.8
20260507104950 61 175 0.9 5.2 0.00 0.00 0.00 44 1433.0
20260507104750 61 226 1.7 5.2 0.00 0.00 0.00 43 1433.6
20260507104550 62 199 0.9 5.2 0.00 0.00 0.00 43 1434.5
20260507104350 62 221 0.9 5.2 0.00 0.00 0.00 44 1434.6
20260507104150 62 198 1.7 5.2 0.00 0.00 0.00 43 1434.6
20260507103950 62 176 0.9 5.2 0.00 0.00 0.00 45 1434.8
20260507103750 61 224 0.9 5.2 0.00 0.00 0.00 46 1434.0
20260507103550 61 227 1.7 5.2 0.00 0.00 0.00 46 1433.0
20260507103350 60 189 0.9 5.2 0.00 0.00 0.00 48 1432.4
20260507103150 59 205 0.9 5.2 0.00 0.00 0.00 48 1431.1
20260507102950 58 228 1.7 5.2 0.00 0.00 0.00 47 1430.1
20260507102750 58 209 1.7 5.2 0.00 0.00 0.00 49 1429.5
20260507102550 58 217 1.7 5.2 0.00 0.00 0.00 48 1429.3
20260507102350 58 201 1.7 5.2 0.00 0.00 0.00 48 1429.6
20260507102150 58 191 1.7 3.5 0.00 0.00 0.00 48 1429.8
20260507101950 58 202 1.7 3.5 0.00 0.00 0.00 49 1430.0
20260507101550 58 180 0.9 4.3 0.00 0.00 0.00 49 1429.9
20260507101350 58 219 0.9 4.3 0.00 0.00 0.00 48 1429.9
20260507101150 58 167 0.9 4.3 0.00 0.00 0.00 48 1430.3
20260507100950 58 197 0.9 4.3 0.00 0.00 0.00 48 1430.2
20260507100750 58 184 0.9 4.3 0.00 0.00 0.00 48 1430.1
20260507100550 58 194 0.9 4.3 0.00 0.00 0.00 49 1430.0
20260507100350 58 159 0.9 4.3 0.00 0.00 0.00 49 1429.8
20260507100150 58 192 1.7 4.3 0.00 0.00 0.00 49 1430.2
20260507095950 59 186 0.9 4.3 0.00 0.00 0.00 49 1430.6
20260507095750 59 218 1.7 4.3 0.00 0.00 0.00 49 1430.9
20260507095550 59 198 0.9 4.3 0.00 0.00 0.00 48 1430.8
20260507095350 59 177 0.9 4.3 0.00 0.00 0.00 47 1430.8
20260507095150 59 200 1.7 3.5 0.00 0.00 0.00 47 1430.8
20260507094950 59 223 1.7 3.5 0.00 0.00 0.00 47 1431.1
20260507094945 59 201 0.9 3.5 0.00 0.00 0.00 48 1431.3
20260507094550 59 226 0.9 3.5 0.00 0.00 0.00 48 1430.8
20260507094350 59 196 0.9 3.5 0.00 0.00 0.00 49 1430.6
20260507094150 58 194 0.9 3.5 0.00 0.00 0.00 49 1430.0
20260507093950 58 201 0.9 3.5 0.00 0.00 0.00 48 1429.3
20260507093750 58 197 0.9 3.5 0.00 0.00 0.00 47 1429.2
20260507093550 58 200 0.9 3.5 0.00 0.00 0.00 47 1429.1
20260507093350 58 161 0.9 2.6 0.00 0.00 0.00 47 1429.1
20260507093150 57 166 0.9 4.3 0.00 0.00 0.00 48 1428.8
20260507092950 57 169 0.9 4.3 0.00 0.00 0.00 48 1428.6
20260507092751 57 178 0.9 4.3 0.00 0.00 0.00 48 1428.5
20260507092550 57 184 0.9 4.3 0.00 0.00 0.00 48 1428.3
20260507092350 57 226 1.7 4.3 0.00 0.00 0.00 48 1428.5
20260507092150 57 171 0.9 2.6 0.00 0.00 0.00 48 1428.9
20260507091950 57 168 0.9 2.6 0.00 0.00 0.00 48 1429.0
20260507091750 58 186 0.9 2.6 0.00 0.00 0.00 48 1429.1
20260507091550 58 183 0.9 2.6 0.00 0.00 0.00 48 1429.1
20260507091350 58 178 0.9 2.6 0.00 0.00 0.00 47 1429.4
20260507091150 58 181 0.9 2.6 0.00 0.00 0.00 48 1429.5
20260507090950 58 188 0.9 2.6 0.00 0.00 0.00 48 1429.5
20260507090750 58 191 0.9 2.6 0.00 0.00 0.00 48 1429.5
20260507090550 58 161 0.9 3.5 0.00 0.00 0.00 48 1429.4
20260507090350 58 177 0.9 3.5 0.00 0.00 0.00 48 1429.0
20260507090150 57 178 0.9 3.5 0.00 0.00 0.00 50 1428.5
20260507085950 57 169 0.0 3.5 0.00 0.00 0.00 51 1427.8
20260507085750 56 198 0.9 3.5 0.00 0.00 0.00 50 1427.4
20260507085550 56 189 0.9 2.6 0.00 0.00 0.00 51 1427.1
20260507085350 56 200 0.9 2.6 0.00 0.00 0.00 50 1426.7
20260507085150 56 191 0.0 2.6 0.00 0.00 0.00 50 1426.4
20260507084950 55 242 0.9 2.6 0.00 0.00 0.00 50 1426.1
20260507084750 55 231 0.9 2.6 0.00 0.00 0.00 48 1425.8
20260507084550 55 252 0.9 2.6 0.00 0.00 0.00 48 1425.7
20260507084350 55 235 0.9 1.7 0.00 0.00 0.00 48 1425.5
20260507084150 55 224 0.9 1.7 0.00 0.00 0.00 47 1425.6
20260507083950 55 205 0.9 1.7 0.00 0.00 0.00 49 1425.6
20260507083750 55 206 0.9 1.7 0.00 0.00 0.00 50 1425.5
20260507083550 55 187 0.9 1.7 0.00 0.00 0.00 51 1425.5
20260507083350 55 226 0.0 1.7 0.00 0.00 0.00 53 1425.4
20260507083150 55 224 0.9 2.6 0.00 0.00 0.00 53 1425.1
20260507082950 54 223 0.9 2.6 0.00 0.00 0.00 53 1424.8
20260507082750 54 243 0.9 2.6 0.00 0.00 0.00 54 1424.9
20260507082550 54 206 0.9 2.6 0.00 0.00 0.00 55 1424.8
20260507082351 54 230 0.9 2.6 0.00 0.00 0.00 56 1424.8
20260507082150 54 231 0.0 1.7 0.00 0.00 0.00 57 1424.6
20260507081950 54 218 0.0 1.7 0.00 0.00 0.00 56 1424.2
20260507081750 54 234 0.9 1.7 0.00 0.00 0.00 57 1424.1
20260507081550 54 221 0.9 1.7 0.00 0.00 0.00 58 1424.1
20260507081350 54 196 0.0 1.7 0.00 0.00 0.00 59 1424.1
20260507081150 54 195 0.0 1.7 0.00 0.00 0.00 60 1423.9
20260507080950 53 183 0.9 2.6 0.00 0.00 0.00 61 1423.8
20260507080750 53 226 0.0 2.6 0.00 0.00 0.00 61 1423.6
20260507080550 53 204 0.0 2.6 0.00 0.00 0.00 62 1423.3
20260507080350 53 221 0.9 2.6 0.00 0.00 0.00 62 1423.1
20260507080150 53 239 0.9 2.6 0.00 0.00 0.00 63 1423.1
20260507075950 53 208 0.0 2.6 0.00 0.00 0.00 64 1423.3
20260507075750 53 204 0.0 1.7 0.00 0.00 0.00 64 1422.9
20260507075550 53 231 0.0 1.7 0.00 0.00 0.00 65 1422.5
20260507075350 52 223 0.9 1.7 0.00 0.00 0.00 65 1422.2
20260507075150 52 185 0.0 1.7 0.00 0.00 0.00 66 1421.8
20260507074950 52 229 0.9 1.7 0.00 0.00 0.00 66 1421.5
20260507074750 52 209 0.9 2.6 0.00 0.00 0.00 67 1421.3
20260507074550 52 230 0.9 2.6 0.00 0.00 0.00 68 1421.3
20260507074350 52 232 0.9 2.6 0.00 0.00 0.00 69 1421.2
20260507074150 51 255 0.0 2.6 0.00 0.00 0.00 69 1420.9
20260507073950 51 227 0.9 2.6 0.00 0.00 0.00 69 1420.8
20260507073750 51 252 0.9 2.6 0.00 0.00 0.00 70 1420.7
20260507073550 51 243 0.9 2.6 0.00 0.00 0.00 71 1420.6
20260507073350 51 235 0.9 1.7 0.00 0.00 0.00 71 1420.5
20260507073150 51 264 0.9 1.7 0.00 0.00 0.00 72 1420.5
20260507072950 51 239 0.0 1.7 0.00 0.00 0.00 72 1420.4
20260507072750 51 254 0.0 1.7 0.00 0.00 0.00 72 1420.1
20260507072550 51 239 0.9 1.7 0.00 0.00 0.00 73 1420.0
20260507072350 50 219 0.0 1.7 0.00 0.00 0.00 73 1419.6
20260507072150 50 202 0.0 1.7 0.00 0.00 0.00 73 1419.4
20260507071950 50 218 0.0 1.7 0.00 0.00 0.00 73 1419.4
20260507071750 50 252 0.0 0.9 0.00 0.00 0.00 73 1419.0
20260507071550 50 258 0.0 0.9 0.00 0.00 0.00 74 1418.7
20260507071350 49 214 0.9 1.7 0.00 0.00 0.00 74 1418.5
20260507071150 49 212 0.0 1.7 0.00 0.00 0.00 74 1418.4
20260507070950 49 238 0.0 1.7 0.00 0.00 0.00 74 1418.2
20260507070750 49 209 0.0 1.7 0.00 0.00 0.00 74 1418.0
20260507070550 49 233 0.0 1.7 0.00 0.00 0.00 74 1417.7
20260507070350 49 214 0.9 1.7 0.00 0.00 0.00 74 1418.0
20260507070150 50 274 0.0 1.7 0.00 0.00 0.00 74 1418.6
20260507065950 50 238 0.0 1.7 0.00 0.00 0.00 74 1418.9
20260507065750 50 207 0.0 1.7 0.00 0.00 0.00 74 1419.0
20260507065550 50 218 0.0 1.7 0.00 0.00 0.00 74 1418.9
20260507065350 50 224 0.0 1.7 0.00 0.00 0.00 75 1418.8
20260507065150 50 277 0.0 1.7 0.00 0.00 0.00 75 1418.5
20260507064950 49 257 0.9 1.7 0.00 0.00 0.00 75 1418.2
20260507064750 49 249 0.0 1.7 0.00 0.00 0.00 75 1418.0
20260507064551 49 232 0.0 1.7 0.00 0.00 0.00 75 1417.6
20260507064351 49 235 0.0 1.7 0.00 0.00 0.00 75 1417.3
20260507064150 48 226 0.9 1.7 0.00 0.00 0.00 75 1417.2
20260507063950 49 229 0.0 1.7 0.00 0.00 0.00 76 1417.4
20260507063750 49 232 0.0 1.7 0.00 0.00 0.00 76 1417.3
20260507063550 48 228 0.0 1.7 0.00 0.00 0.00 76 1417.0
20260507063350 48 190 0.9 1.7 0.00 0.00 0.00 76 1416.8
20260507063150 48 263 0.0 1.7 0.00 0.00 0.00 77 1417.0
20260507062950 48 248 0.0 0.9 0.00 0.00 0.00 77 1416.8
20260507062750 48 214 0.0 0.9 0.00 0.00 0.00 78 1416.6
20260507062550 48 175 0.0 0.9 0.00 0.00 0.00 78 1416.6
20260507062350 48 211 0.0 0.9 0.00 0.00 0.00 78 1416.5
20260507062150 48 270 0.0 0.9 0.00 0.00 0.00 78 1416.4
20260507061950 48 246 0.0 0.9 0.00 0.00 0.00 78 1416.3
20260507061750 48 232 0.0 0.9 0.00 0.00 0.00 79 1416.1
20260507061550 47 259 0.0 0.9 0.00 0.00 0.00 79 1415.8
20260507061350 47 217 0.0 0.9 0.00 0.00 0.00 79 1415.5
20260507061150 47 135 0.0 0.9 0.00 0.00 0.00 79 1415.3
20260507060950 47 203 0.0 0.9 0.00 0.00 0.00 80 1415.0
20260507060750 46 2 0.0 0.9 0.00 0.00 0.00 80 1414.4
20260507060550 46 242 0.0 1.7 0.00 0.00 0.00 80 1414.2
20260507060350 46 176 0.0 1.7 0.00 0.00 0.00 80 1414.3
20260507060150 46 68 0.0 1.7 0.00 0.00 0.00 80 1414.3
20260507055950 46 242 0.9 1.7 0.00 0.00 0.00 80 1414.0
20260507055750 46 177 0.0 1.7 0.00 0.00 0.00 81 1414.0
20260507055550 46 174 0.0 1.7 0.00 0.00 0.00 81 1413.7
20260507055350 46 301 0.0 1.7 0.00 0.00 0.00 81 1413.5
20260507055150 45 295 0.9 1.7 0.00 0.00 0.00 81 1413.2
20260507054950 45 162 0.0 1.7 0.00 0.00 0.00 81 1413.2
20260507054750 45 234 0.0 1.7 0.00 0.00 0.00 82 1413.0
20260507054550 45 198 0.0 1.7 0.00 0.00 0.00 82 1412.9
20260507054350 45 266 0.9 1.7 0.00 0.00 0.00 82 1412.6
20260507054150 45 218 0.9 1.7 0.00 0.00 0.00 83 1412.5
20260507053951 45 237 0.9 1.7 0.00 0.00 0.00 83 1412.4
20260507053750 45 252 0.9 1.7 0.00 0.00 0.00 84 1412.4
20260507053550 45 260 0.0 1.7 0.00 0.00 0.00 85 1412.5
20260507053350 45 265 0.0 1.7 0.00 0.00 0.00 85 1412.3
20260507052950 45 248 0.0 1.7 0.00 0.00 0.00 86 1412.1
20260507052750 44 263 0.0 1.7 0.00 0.00 0.00 86 1411.8
20260507052550 44 296 0.9 1.7 0.00 0.00 0.00 86 1411.5
20260507052350 44 250 0.0 0.9 0.00 0.00 0.00 87 1414.7
20260507052150 44 268 0.0 0.9 0.00 0.00 0.00 87 1411.1
20260507051950 44 226 0.0 0.9 0.00 0.00 0.00 87 1414.5
20260507051750 44 219 0.0 0.0 0.00 0.00 0.00 88 1411.2
20260507051550 44 227 0.0 0.0 0.00 0.00 0.00 88 1411.2
20260507051350 44 10 0.0 0.0 0.00 0.00 0.00 88 1410.8
20260507051150 43 193 0.0 0.0 0.00 0.00 0.00 88 1414.0
20260507050950 43 74 0.0 0.0 0.00 0.00 0.00 88 1413.9
20260507050750 43 147 0.0 0.0 0.00 0.00 0.00 88 1413.7
20260507050550 43 242 0.0 0.0 0.00 0.00 0.00 88 1413.1
20260507050350 43 163 0.0 0.0 0.00 0.00 0.00 88 1412.9
20260507050150 42 23 0.0 0.0 0.00 0.00 0.00 88 1412.6
20260507045950 42 79 0.0 0.0 0.00 0.00 0.00 88 1411.8
20260507045750 41 92 0.0 0.0 0.00 0.00 0.00 88 1411.2
20260507045550 41 90 0.0 0.0 0.00 0.00 0.00 88 1410.4
20260507045350 40 90 0.0 0.0 0.00 0.00 0.00 88 1409.0
20260507045150 39 80 0.0 0.0 0.00 0.00 0.00 88 1411.1
20260507044950 38 45 0.0 0.0 0.00 0.00 0.00 88 1410.0
20260507044750 37 86 0.0 0.0 0.00 0.00 0.00 88 1412.8
20260507044550 37 90 0.0 0.0 0.00 0.00 0.00 88 1415.8
20260507044350 37 108 0.0 0.0 0.00 0.00 0.00 88 1418.9
20260507044151 37 91 0.0 0.0 0.00 0.00 0.00 88 1425.4
20260507043950 36 130 0.0 0.0 0.00 0.00 0.00 88 1428.6
20260507043750 36 101 0.0 0.0 0.00 0.00 0.00 88 1431.6
20260507043550 36 45 0.0 0.0 0.00 0.00 0.00 88 1435.0
20260507043350 36 124 0.0 0.0 0.00 0.00 0.00 88 1434.8
20260507043150 36 200 0.0 0.0 0.00 0.00 0.00 88 1441.4
20260507042950 36 96 0.0 0.0 0.00 0.00 0.00 88 1444.5
20260507042750 35 90 0.0 0.0 0.00 0.00 0.00 88 1447.8
20260507042550 35 90 0.0 0.0 0.00 0.00 0.00 88 1447.7
20260507042350 35 90 0.0 0.0 0.00 0.00 0.00 88 1447.6
20260507042150 35 90 0.0 0.0 0.00 0.00 0.00 88 1451.0
20260507041950 35 90 0.0 0.0 0.00 0.00 0.00 88 1450.9
20260507041750 35 90 0.0 0.0 0.00 0.00 0.00 88 1454.1
20260507041550 35 90 0.0 0.0 0.00 0.00 0.00 88 1457.5
20260507041350 35 90 0.0 0.0 0.00 0.00 0.00 88 1457.3
20260507041150 35 90 0.0 0.0 0.00 0.00 0.00 87 1460.6
20260507040950 35 96 0.0 0.0 0.00 0.00 0.00 87 1460.4
20260507040750 35 93 0.0 0.0 0.00 0.00 0.00 87 1463.6
20260507040550 35 67 0.0 0.0 0.00 0.00 0.00 87 1463.6
20260507040350 35 90 0.0 0.0 0.00 0.00 0.00 87 1463.7
20260507040150 35 90 0.0 0.0 0.00 0.00 0.00 87 1463.6
20260507035950 34 91 0.0 0.0 0.00 0.00 0.00 87 1463.5
20260507035750 34 97 0.0 0.0 0.00 0.00 0.00 87 1466.7
20260507035550 34 93 0.0 0.0 0.00 0.00 0.00 87 1466.5
20260507035350 34 92 0.0 0.0 0.00 0.00 0.00 87 1469.8
20260507035150 34 90 0.0 0.0 0.00 0.00 0.00 87 1469.7
20260507034950 34 90 0.0 0.0 0.00 0.00 0.00 87 1469.6
20260507034750 34 98 0.0 0.0 0.00 0.00 0.00 87 1469.6
20260507034550 34 100 0.0 0.0 0.00 0.00 0.00 87 1469.7
20260507034350 34 95 0.0 0.0 0.00 0.00 0.00 87 1469.7
20260507034150 34 90 0.0 0.0 0.00 0.00 0.00 87 1469.6
20260507033950 34 90 0.0 0.0 0.00 0.00 0.00 87 1469.6
20260507033750 34 72 0.0 0.0 0.00 0.00 0.00 87 1469.6
20260507033550 34 96 0.0 0.0 0.00 0.00 0.00 86 1469.6
20260507033350 34 115 0.0 0.0 0.00 0.00 0.00 86 1469.6
20260507033150 34 90 0.0 0.0 0.00 0.00 0.00 86 1469.6
20260507032950 34 90 0.0 0.0 0.00 0.00 0.00 86 1469.7
20260507032750 34 91 0.0 0.0 0.00 0.00 0.00 86 1469.8
20260507032550 34 66 0.0 0.0 0.00 0.00 0.00 86 1469.9
20260507032350 34 94 0.0 0.0 0.00 0.00 0.00 86 1466.5
20260507032150 34 93 0.0 0.0 0.00 0.00 0.00 86 1466.5
20260507031950 34 96 0.0 0.0 0.00 0.00 0.00 86 1469.7
20260507031750 34 135 0.0 0.0 0.00 0.00 0.00 86 1469.6
20260507031550 34 105 0.0 0.0 0.00 0.00 0.00 86 1469.6
20260507031350 34 109 0.0 0.0 0.00 0.00 0.00 86 1472.8
20260507031150 34 136 0.0 0.0 0.00 0.00 0.00 86 1472.6
20260507030950 34 93 0.0 0.0 0.00 0.00 0.00 86 1472.6
20260507030750 34 90 0.0 0.0 0.00 0.00 0.00 85 1472.9
20260507030550 34 99 0.0 0.0 0.00 0.00 0.00 85 1469.6
20260507030350 34 99 0.0 0.0 0.00 0.00 0.00 85 1469.6
20260507030150 34 90 0.0 0.0 0.00 0.00 0.00 85 1469.8
20260507025950 34 99 0.0 0.0 0.00 0.00 0.00 85 1469.8
20260507025750 34 67 0.0 0.0 0.00 0.00 0.00 85 1470.0
20260507025550 34 110 0.0 0.0 0.00 0.00 0.00 85 1466.8
20260507025350 34 114 0.0 0.0 0.00 0.00 0.00 85 1466.8
20260507025150 34 96 0.0 0.9 0.00 0.00 0.00 85 1466.9
20260507024950 34 117 0.0 0.9 0.00 0.00 0.00 85 1466.8
20260507024750 34 106 0.0 0.9 0.00 0.00 0.00 85 1466.8
20260507024550 34 93 0.0 0.9 0.00 0.00 0.00 85 1466.9
20260507024350 35 107 0.0 0.9 0.00 0.00 0.00 85 1467.0
20260507024150 35 103 0.0 0.0 0.00 0.00 0.00 84 1463.6
20260507023950 35 88 0.0 0.0 0.00 0.00 0.00 84 1463.8
20260507023750 35 60 0.0 0.0 0.00 0.00 0.00 84 1460.6
20260507023550 35 109 0.0 0.9 0.00 0.00 0.00 84 1460.6
20260507023350 35 148 0.0 0.9 0.00 0.00 0.00 84 1463.9
20260507023150 35 197 0.0 0.9 0.00 0.00 0.00 84 1463.9
20260507022950 35 99 0.0 0.9 0.00 0.00 0.00 84 1463.8
20260507022750 35 99 0.0 0.9 0.00 0.00 0.00 84 1463.9
20260507022550 35 90 0.0 0.0 0.00 0.00 0.00 84 1463.9
20260507022350 35 93 0.0 0.0 0.00 0.00 0.00 84 1460.6
20260507022150 35 75 0.0 0.0 0.00 0.00 0.00 83 1460.8
20260507021950 35 50 0.0 0.0 0.00 0.00 0.00 83 1457.6
20260507021750 35 85 0.0 0.0 0.00 0.00 0.00 83 1454.4
20260507021550 35 52 0.0 0.0 0.00 0.00 0.00 83 1454.5
20260507021350 36 87 0.0 0.0 0.00 0.00 0.00 83 1451.3
20260507021150 36 159 0.0 0.0 0.00 0.00 0.00 83 1448.0
20260507020950 36 172 0.0 0.9 0.00 0.00 0.00 83 1448.1
20260507020750 36 126 0.0 0.9 0.00 0.00 0.00 83 1448.1
20260507020550 36 107 0.0 0.9 0.00 0.00 0.00 83 1448.2
20260507020350 36 111 0.0 0.9 0.00 0.00 0.00 83 1444.9
20260507020150 36 100 0.0 0.9 0.00 0.00 0.00 83 1445.0
20260507015950 36 126 0.0 0.9 0.00 0.00 0.00 82 1445.0
20260507015750 36 165 0.0 0.9 0.00 0.00 0.00 82 1445.0
20260507015550 36 100 0.0 0.9 0.00 0.00 0.00 82 1441.8
20260507015350 36 94 0.0 0.9 0.00 0.00 0.00 82 1438.6
20260507015150 36 108 0.0 0.9 0.00 0.00 0.00 82 1438.5
20260507014950 36 189 0.0 0.0 0.00 0.00 0.00 82 1441.7
20260507014750 36 242 0.0 0.0 0.00 0.00 0.00 82 1441.8
20260507014550 36 106 0.0 0.0 0.00 0.00 0.00 81 1438.5
20260507014350 36 172 0.0 0.9 0.00 0.00 0.00 81 1441.8
20260507014150 36 198 0.0 0.9 0.00 0.00 0.00 81 1441.9
20260507013950 36 94 0.0 0.9 0.00 0.00 0.00 81 1438.5
20260507013750 36 110 0.0 0.9 0.00 0.00 0.00 81 1438.6
20260507013550 36 103 0.0 0.9 0.00 0.00 0.00 81 1435.4
20260507013350 36 110 0.0 0.9 0.00 0.00 0.00 80 1432.1
20260507013150 37 109 0.0 0.9 0.00 0.00 0.00 80 1432.3
20260507012950 37 105 0.0 0.9 0.00 0.00 0.00 80 1432.3
20260507012750 37 103 0.0 0.0 0.00 0.00 0.00 80 1432.2
20260507012550 37 108 0.0 0.0 0.00 0.00 0.00 80 1432.2
20260507012350 37 103 0.0 0.0 0.00 0.00 0.00 79 1432.2
20260507012150 36 127 0.0 0.0 0.00 0.00 0.00 79 1435.4
20260507011950 36 102 0.0 0.0 0.00 0.00 0.00 79 1432.1
20260507011750 36 97 0.0 0.0 0.00 0.00 0.00 79 1432.2
20260507011550 37 100 0.0 0.0 0.00 0.00 0.00 79 1432.2
20260507011350 37 115 0.0 0.9 0.00 0.00 0.00 78 1432.3
20260507011150 37 94 0.0 0.9 0.00 0.00 0.00 78 1429.0
20260507010950 37 102 0.0 0.9 0.00 0.00 0.00 78 1425.8
20260507010750 37 101 0.0 0.9 0.00 0.00 0.00 78 1425.9
20260507010550 37 94 0.0 0.9 0.00 0.00 0.00 77 1422.7
20260507010350 37 118 0.0 0.9 0.00 0.00 0.00 77 1422.9
20260507010150 37 93 0.0 0.9 0.00 0.00 0.00 77 1422.8
20260507005950 37 49 0.0 0.9 0.00 0.00 0.00 77 1422.6
20260507005750 37 54 0.0 0.9 0.00 0.00 0.00 76 1422.8
20260507005550 37 92 0.0 0.0 0.00 0.00 0.00 76 1422.9
20260507005350 37 93 0.0 0.0 0.00 0.00 0.00 76 1422.9
20260507005150 37 91 0.0 0.0 0.00 0.00 0.00 76 1422.9
20260507004950 37 105 0.0 0.0 0.00 0.00 0.00 76 1419.5
20260507004750 37 79 0.0 0.0 0.00 0.00 0.00 75 1419.6
20260507004350 38 76 0.0 0.9 0.00 0.00 0.00 75 1416.5
20260507004150 38 90 0.0 0.9 0.00 0.00 0.00 75 1416.8
20260507003950 38 91 0.0 0.9 0.00 0.00 0.00 75 1413.7
20260507003750 38 97 0.0 0.9 0.00 0.00 0.00 75 1413.8
20260507003550 38 94 0.0 0.9 0.00 0.00 0.00 75 1413.9
20260507003350 38 97 0.0 0.9 0.00 0.00 0.00 75 1414.1
20260507003150 38 94 0.0 0.9 0.00 0.00 0.00 74 1414.2
20260507002950 38 90 0.0 0.9 0.00 0.00 0.00 74 1414.4
20260507002750 39 95 0.0 0.9 0.00 0.00 0.00 74 1411.1
20260507002550 39 91 0.0 0.9 0.00 0.00 0.00 74 1411.2
20260507002350 39 97 0.0 0.0 0.00 0.00 0.00 74 1411.3
20260507002150 39 92 0.0 0.0 0.00 0.00 0.00 74 1411.4
20260507001950 39 88 0.0 0.0 0.00 0.00 0.00 74 1411.7
20260507001750 39 76 0.0 0.9 0.00 0.00 0.00 73 1412.2
20260507001550 40 90 0.0 0.9 0.00 0.00 0.00 73 1412.6
20260507001350 40 93 0.0 0.9 0.00 0.00 0.00 73 1412.9
20260507001150 40 92 0.0 0.9 0.00 0.00 0.00 73 1413.1
20260507000950 40 92 0.0 0.0 0.00 0.00 0.00 73 1413.4
20260507000750 40 101 0.0 0.9 0.00 0.00 0.00 73 1413.5
20260507000550 40 100 0.0 0.9 0.00 0.00 0.00 73 1413.5
20260507000350 40 119 0.0 0.9 0.00 0.00 0.00 72 1413.5
20260507000150 41 195 0.0 0.9 0.00 0.00 0.00 72 1413.8
20260506235950 41 114 0.0 0.9 0.00 0.00 0.00 72 1414.3
20260506235750 41 132 0.0 0.9 0.00 0.00 0.00 72 1410.9
20260506235550 41 84 0.0 0.9 0.00 0.00 0.00 71 1411.1
20260506235350 41 148 0.0 1.7 0.00 0.00 0.00 71 1411.5
20260506235150 42 167 0.0 1.7 0.00 0.00 0.00 71 1412.0
20260506234950 42 92 0.0 1.7 0.00 0.00 0.00 70 1412.5
20260506234750 43 175 0.0 1.7 0.00 0.00 0.00 70 1412.9
20260506234550 43 190 0.0 1.7 0.00 0.00 0.00 69 1413.5
20260506234350 43 136 0.0 1.7 0.00 0.00 0.00 69 1414.0
20260506234150 44 103 0.0 1.7 0.00 0.00 0.00 69 1414.3
20260506233950 44 161 0.0 1.7 0.00 0.00 0.00 69 1414.6
20260506233750 44 172 0.0 2.6 0.00 0.00 0.00 69 1414.8
20260506233550 44 230 0.0 2.6 0.00 0.00 0.00 69 1415.1
20260506233350 44 170 0.0 2.6 0.00 0.00 0.00 69 1415.3
20260506233150 44 190 0.9 2.6 0.00 0.00 0.00 70 1415.3
20260506232950 44 211 0.9 2.6 0.00 0.00 0.00 70 1415.1
20260506232750 44 210 0.9 1.7 0.00 0.00 0.00 71 1415.0
20260506232550 44 230 0.0 1.7 0.00 0.00 0.00 71 1415.1
20260506232350 44 170 0.0 1.7 0.00 0.00 0.00 71 1415.2
20260506232150 44 153 0.0 3.5 0.00 0.00 0.00 71 1415.4
20260506231950 45 204 0.9 3.5 0.00 0.00 0.00 71 1415.5
20260506231750 45 165 0.0 3.5 0.00 0.00 0.00 71 1415.6
20260506231550 45 205 0.9 3.5 0.00 0.00 0.00 71 1415.6
20260506231350 45 166 0.9 3.5 0.00 0.00 0.00 71 1415.5
20260506231150 44 203 0.9 3.5 0.00 0.00 0.00 71 1415.4
20260506230951 45 193 0.0 4.3 0.00 0.00 0.00 71 1415.6
20260506230750 45 151 0.0 4.3 0.00 0.00 0.00 71 1415.9
20260506230550 45 183 0.0 4.3 0.00 0.00 0.00 71 1416.2
20260506230350 45 198 0.9 4.3 0.00 0.00 0.00 70 1416.2
20260506230150 45 188 0.9 2.6 0.00 0.00 0.00 70 1416.2
20260506225950 45 197 0.9 3.5 0.00 0.00 0.00 70 1416.3
20260506225750 45 198 0.9 3.5 0.00 0.00 0.00 70 1416.4
20260506225550 45 192 0.9 3.5 0.00 0.00 0.00 70 1416.4
20260506225350 45 225 0.9 3.5 0.00 0.00 0.00 70 1416.3
20260506225150 45 222 0.9 3.5 0.00 0.00 0.00 69 1416.1
20260506224950 45 167 0.0 3.5 0.00 0.00 0.00 68 1416.0
20260506224750 45 216 0.9 3.5 0.00 0.00 0.00 68 1416.0
20260506224550 45 217 0.9 3.5 0.00 0.00 0.00 69 1416.0
20260506224350 45 207 0.9 3.5 0.00 0.00 0.00 69 1415.9
20260506224150 45 247 0.9 3.5 0.00 0.00 0.00 69 1415.8
20260506223950 45 220 0.9 2.6 0.00 0.00 0.00 68 1415.6
20260506223750 45 155 0.0 1.7 0.00 0.00 0.00 68 1415.7
20260506223550 45 104 0.0 1.7 0.00 0.00 0.00 68 1415.7
20260506223350 45 204 0.9 2.6 0.00 0.00 0.00 68 1415.8
20260506223150 45 191 0.9 3.5 0.00 0.00 0.00 68 1415.9
20260506222950 45 173 0.9 3.5 0.00 0.00 0.00 68 1416.0
20260506222750 45 178 0.0 3.5 0.00 0.00 0.00 68 1416.2
20260506222550 45 194 0.9 3.5 0.00 0.00 0.00 68 1416.2
20260506222352 45 176 0.9 3.5 0.00 0.00 0.00 67 1416.1
20260506222150 45 225 0.9 2.6 0.00 0.00 0.00 67 1416.1
20260506221951 45 214 0.9 2.6 0.00 0.00 0.00 67 1416.1
20260506221750 45 196 0.9 3.5 0.00 0.00 0.00 67 1416.2
20260506221550 45 198 0.9 4.3 0.00 0.00 0.00 67 1416.3
20260506221350 45 206 0.9 4.3 0.00 0.00 0.00 67 1416.3
20260506221150 45 179 0.9 4.3 0.00 0.00 0.00 67 1416.4
20260506220950 45 199 1.7 4.3 0.00 0.00 0.00 67 1413.2
20260506220750 45 174 0.9 3.5 0.00 0.00 0.00 67 1416.6
20260506220550 45 231 0.9 3.5 0.00 0.00 0.00 67 1413.2
20260506220350 45 274 1.7 3.5 0.00 0.00 0.00 67 1416.6
20260506220150 45 197 0.9 3.5 0.00 0.00 0.00 66 1416.5
20260506215950 45 198 0.9 3.5 0.00 0.00 0.00 66 1416.5
20260506215750 45 193 0.9 3.5 0.00 0.00 0.00 66 1413.2
20260506215550 45 221 1.7 3.5 0.00 0.00 0.00 66 1416.5
20260506215350 45 187 0.9 3.5 0.00 0.00 0.00 65 1416.5
20260506215150 45 192 0.9 3.5 0.00 0.00 0.00 65 1413.2
20260506214950 45 180 0.9 3.5 0.00 0.00 0.00 65 1413.3
20260506214750 45 150 0.9 3.5 0.00 0.00 0.00 64 1413.3
20260506214550 46 183 0.9 3.5 0.00 0.00 0.00 64 1413.4
20260506214350 46 198 0.9 3.5 0.00 0.00 0.00 63 1416.8
20260506214150 46 216 0.9 3.5 0.00 0.00 0.00 63 1416.9